www.pogodaiklimat.ru

Погода и климат >> Архив погоды >> Россия >> Чечня >> Грозный


АРХИВ ПОГОДЫ в Грозном

Время (UTC), дата Ветер
(напр.,м/с)
 
Видим.   Явления Облачность Т
(С)
Тd
(С)
f
(%)
Тe
(С)
Тes
(С)
Комфортность P
(гПа)
Po
(гПа)
Тmin
(С)
Tmax
(С)
R
(мм)
R24
(мм)
S
(см)
03 12.09 ЮВ 1 20 км ясно +10.4 +10.1 98 +10 +10 прохладно 1025.5 994.2 +9.6
06 12.09 З 2 20 км 1/0
[Ac lent]
+16.9 +13.2 79 +17 +23 по сезону 1025.2 994.6
09 12.09 В 3 20 км 4/0
[Ac lent]
+22.1 +11.9 52 +24 +32 комфорт 1023.3 993.3
12 12.09 В 4 20 км 3/0
[Ac lent]
+22.9 +9.8 43 +25 +28 комфорт 1022.5 992.6
15 12.09 В 2 20 км 3/0
[Ac lent]
+20.2 +9.2 49 +22 +22 комфорт 1023.1 992.9 +23.9
18 12.09 Ю 1 10 км ясно +15.1 +10.2 73 +16 +16 по сезону 1024.3 993.5
21 12.09 В 1 10 км ясно +11.6 +10.6 94 +11 +11 прохладно 1023.8 992.7
00 13.09 В 1 10 км ясно +10.5 +9.9 96 +10 +10 прохладно 1023.3 992.1
03 13.09 штиль 0 20 км ясно +9.5 +9.0 97 +9 +9 холодно 1023.9 992.5 +9.1
06 13.09 СЗ 1 20 км ясно +16.8 +11.0 69 +18 +26 тепло 1023.8 993.2
09 13.09 В 4 20 км ясно +22.0 +10.3 47 +24 +32 комфорт 1021.8 991.8
12 13.09 В 4 20 км 3/0
[Ac lent]
+24.1 +9.8 40 +25 +28 комфорт 1020.3 990.5
15 13.09 В 3 20 км 3/0
[Ac lent]
+20.3 +11.0 55 +22 +22 комфорт 1021.2 991.0 +24.8
18 13.09 В 3 10 км ясно +16.8 +11.0 69 +17 +17 тепло 1022.1 991.6
21 13.09 В 1 10 км ясно +12.6 +11.1 91 +13 +13 по сезону 1021.9 991.0
00 14.09 В 1 10 км ясно +10.6 +10.1 97 +10 +10 по сезону 1021.6 990.5
03 14.09 В 1 20 км ясно +10.3 +9.6 95 +10 +10 прохладно 1022.0 990.8 +9.9
06 14.09 СЗ 1 20 км ясно +17.2 +11.5 69 +18 +26 тепло 1021.5 991.0
09 14.09 В 3 20 км ясно +23.0 +12.2 51 +26 +36 жарко 1019.0 989.2
12 14.09 В 3 20 км ясно +24.5 +9.9 40 +25 +31 комфорт 1017.6 988.0
15 14.09 В 3 20 км ясно +20.7 +10.0 50 +23 +23 комфорт 1017.3 987.3 +25.1
18 14.09 В 1 10 км ясно +15.5 +11.7 78 +16 +16 тепло 1018.4 987.9
21 14.09 Ю 1 10 км ясно +13.5 +11.2 86 +14 +14 по сезону 1018.5 987.7
00 15.09 штиль 0 10 км ясно +11.9 +10.5 91 +11 +11 по сезону 1018.1 987.2
03 15.09 штиль 0 20 км ясно +11.8 +10.1 89 +11 +11 прохладно 1018.8 987.8 +11.2
06 15.09 З 2 20 км 3/0
[Ci fib]
+19.1 +11.5 61 +21 +27 комфорт 1018.8 988.6
09 15.09 СЗ 2 20 км 5/0
[Ac lent]
+25.1 +9.8 38 +26 +33 жарко 1017.2 987.6
12 15.09 В 1 20 км 9/0
[Ac lent]
+26.0 +9.5 35 +26 +28 жарко 1016.4 987.0
15 15.09 В 1 20 км 4/0
[Ac lent]
+21.0 +13.2 61 +25 +25 комфорт 1017.5 987.6 +27.1
18 15.09 ЮВ 1 10 км 5/0
[Ac lent Cc]
+19.4 +11.2 59 +22 +22 комфорт 1018.9 988.7
21 15.09 В 1 10 км ясно +15.7 +11.6 77 +16 +16 тепло 1019.7 989.1
00 16.09 штиль 0 10 км ясно +15.1 +10.5 74 +15 +15 тепло 1019.7 989.1
03 16.09 штиль 0 20 км ясно +12.6 +10.7 88 +12 +12 по сезону 1019.6 988.7 +11.8
06 16.09 СЗ 1 20 км ясно +19.7 +9.6 52 +22 +29 комфорт 1018.2 988.0
09 16.09 СВ 3 20 км ясно +24.4 +10.0 40 +25 +35 комфорт 1014.8 985.2
12 16.09 В 2 20 км 3/0
[Ac lent]
+25.8 +10.4 38 +27 +31 жарко 1012.6 983.2
15 16.09 В 1 20 км 3/0
[Ac lent]
+21.1 +13.7 63 +24 +24 комфорт 1011.6 981.9 +26.4
18 16.09 штиль 0 10 км 8/0
[Ac lent Cc]
+18.1 +13.3 74 +18 +18 тепло 1012.5 982.4
21 16.09 Ю 1 10 км ясно +17.4 +11.9 70 +18 +18 тепло 1012.6 982.4
00 17.09 Ю 1 10 км 10/10 600 м
[Sc]
+16.7 +11.8 73 +18 +18 тепло 1012.2 982.0
03 17.09 штиль 0 20 км 8/0
[Ac lent]
+16.9 +12.1 73 +17 +17 тепло 1012.2 982.0 +16.0
06 17.09 СЗ 1 20 км 3/0
[Ac lent]
+22.3 +11.8 51 +25 +30 комфорт 1011.9 982.2
09 17.09 СЗ 2 20 км 3/0
[Ac lent]
+26.3 +10.9 38 +27 +36 жарко 1009.6 980.4
12 17.09 СЗ 2 20 км 8/5 1000 м
[Sc Ac lent]
+27.2 +10.2 34 +28 +29 жарко 1009.0 979.8
15 17.09 З 3 20 км 5/0
[Ac lent]
+21.3 +11.1 52 +23 +23 комфорт 1010.8 981.0 +28.2
18 17.09 СВ 1 10 км 3/0
[Ac lent]
+16.3 +12.1 76 +17 +17 тепло 1012.5 982.2
21 17.09 В 1 10 км 5/0
[Ac lent]
+14.4 +12.0 85 +15 +15 тепло 1012.6 982.1
00 18.09 штиль 0 10 км ясно +14.5 +12.4 87 +14 +14 тепло 1013.3 982.8
03 18.09 штиль 0 20 км ясно +14.0 +12.1 88 +14 +14 по сезону 1015.1 984.5 +13.9
06 18.09 З 1 20 км ясно +20.3 +10.4 53 +23 +30 комфорт 1015.5 985.5 +13.8
09 18.09 СВ 2 20 км ясно +24.0 +9.8 41 +25 +37 комфорт 1014.1 984.5
12 18.09 В 2 20 км ясно +26.3 +10.7 38 +27 +33 жарко 1012.1 982.8
15 18.09 В 2 20 км ясно +23.3 +11.8 48 +26 +26 жарко 1011.7 982.1 +27.1
18 18.09 штиль 0 10 км ясно +18.4 +12.5 68 +19 +19 тепло 1011.7 981.7
21 18.09 Ю 1 10 км ясно +15.7 +12.6 82 +16 +16 тепло 1012.8 982.4

 

Местоположение метеостанции Грозный (Чечня, Россия): широта 43.25 долгота 45.72 высота над уровнем моря 258 м.

В архиве по умолчанию представлена погода в Грозном за последнюю неделю. Архивные данные за месяц целиком и за предыдущие месяцы, начиная с января 2011 года, Вы можете получить, выбрав интересующий диапазон дат из раскрывающегося списка и нажав кнопку "Ввод!".


*Определитесь, кто Вы:
робот инопланетянин человек

Внимание! Время в таблицах - всемирное. Для получения местного времени необходимо прибавить поправку, которая равна 3 ч.

Смотрите также архив погоды в соседних городах и на ближайших метеорологических станциях:

Погода в Гудермесе (Чечня, Россия) (34 км)
Погода в Шатое (Чечня, Россия) (41 км)
Погода в Наурской (Чечня, Россия) (55 км)
Погода в Шелковской (Чечня, Россия) (61 км)
Погода в Хасавюрте (Дагестан, Россия) (70 км)
Погода в Назрани (Ингушетия, Россия) (71 км)
Погода в Владикавказе (Северная Осетия, Россия) (88 км)
Погода в Бабаюрте (Дагестан, Россия) (94 км)
Погода в Терекли-Мектебе (Дагестан, Россия) (99 км)
Погода в Моздоке (Северная Осетия, Россия) (100 км)

Пояснения к столбцам:

Ветер - указаны скорость ветра в м/с - средняя за 10 мин, порывы в срок и между сроками (в фигурных скобках) и направление, откуда дует ветер: С - северный, СВ - северо-восточный, В - восточный, ЮВ - юго-восточный, Ю - южный, ЮЗ - юго-западный, З - западный, СЗ - северо-западный.
Видимость - горизонтальная дальность видимости в метрах или километрах. При видимости от 1 до 10 км при отсутствии осадков обычно наблюдается дымка, при ухудшении видимости до 1 км и менее - туман. В сухую погоду видимость может ухудшаться дымом, пылью или мглою.
Явления - указаны атмосферные явления, наблюдавшиеся в срок или в последний час перед сроком; фигурными скобками обозначены явления, наблюдавшиеся между сроками (за 1-3 часа до срока); квадратными скобками обозначены град или гололедные отложения с указанием их диаметра в мм.
Облачность - указаны через наклонную черту общая и нижняя облачность в баллах и высота нижней границы облаков в метрах; квадратными скобками обозначены формы облаков: Ci - перистые, Cs - перисто-слоистые, Cc - перисто-кучевые, Ac - высококучевые, As - высокослоистые, Sc - слоисто-кучевые, Ns - слоисто-дождевые, Cu - кучевые, Cb - кучево-дождевые. Подробнее классификацию облаков см. в Атласе облаков (PDF).
T - Температура воздуха - температура, измеренная на высоте 2 м над землей.
Td - Температура точки росы - температура, при понижении до которой содержащийся в воздухе водяной пар достигнет насыщения.
f - Относительная влажность воздуха - влажноcть воздуха, измеренная на высоте 2 м над землей.
Te - Эффективная температура - температура, которую ощущает одетый по сезону человек в тени. Характеристика душности погоды. При расчете учитывается влияние влажности воздуха и скорости ветра на теплоощущения человека.
Tes - Эффективная температура на солнце - температура, которую ощущает человек, с поправкой на солнечный нагрев. Характеристика знойности погоды. Зависит от высоты солнца над горизонтом, облачности и скорости ветра. Ночью, в пасмурную погоду, а также при ветре 12 м/с и более поправка равна нулю.
P - Атмосферное давление - приведенное к уровню моря атмосферное давление.
Po - Атмосферное давление - измеренное на уровне метеостанции атмосферное давление.
Tmin - Минимальная температура - минимум температуры воздуха на высоте 2 м над землей.
Tmax - Максимальная температура - максимум температуры воздуха на высоте 2 м над землей.
R - Количество осадков - Количество выпавших осадков за период времени, мм. При наведении курсора мыши на число - период времени, за который выпало указанное количество осадков.
R24 - Количество осадков - Количество выпавших осадков за 24 часа, мм.
S - Снежный покров - Высота снежного покрова, см. При наведении курсора мыши на число - состояние снежного покрова и степень покрытия местности в баллах.